SL-16 DEB, 22366

Orbit data source: Space-Track

SL-16 DEB, 22366 is space debris in LEO originally from a launch on Fri, 25 Dec 1992 UTC launched from the Tyuratam Missile And Space Complex (TTMTR). Debris objects in space refer to the collection of defunct objects orbiting the Earth. Examples of debris include non-operational satellites, rocket bodies, and fragments generated from explosions, collisions, or faulty payload assembly.

Loading next visibility...
Identifier
22366, 1992-093BF
Orbit
LEO
Country
Flag of CISCIS
Related business
Manufacturer
Unknown
Mission
Spacecraft
Bus & Motor
Unknown
Mass
Unknown
Launch date (UTC)
1992-12-25 (33 years ago)
Launch vehicle
Unknown
Launch site
Tyuratam Missile And Space Complex (TTMTR)
Object type
Payload
Rocket body
Debris
Shape & HBR
Unknown shape, 0.3 m
Radar Cross Section
Medium (>0.1 m² and <1 m²)

Expand to show TLE details & history
Last TLE update: 5 hours ago

TLE from 5 hours ago
0 SL-16 DEB
1 22366U 92093BF  26127.16268653  .00015938  00000-0  23365-2 0  9994
2 22366  71.1025 107.1738 0053287  21.2565  67.3574 14.74649348718109
Epoch: 2026-05-07T03:54Z
TLE epoch observation values (Epoch: 2026-05-07T03:54:16.116Z)
Latitude
71.1805°
Longitude
-88.94278°
Altitude
643.763 km
Speed
7.551 km/s
True Right ascension
12h 58m 32s
True Declination
71° 04' 25"
Sunlit
Object was in daylight at epoch
Visualization orbit readout
Latitude
Unknown
Longitude
Unknown
Altitude
Unknown
Speed
Unknown
Apparent Right ascension
Unknown
Apparent Declination
Unknown
Sunlit
N/A
Visualization observer readout
Local Sidereal Time
17:20:22
Azimuth
Unknown
Elevation
Unknown
Doppler factor
Unknown
Orbital elements
Apogee altitude
681.54 km
Perigee altitude
606.701 km
Semi-major axis
7,022.258 km
Eccentricity
0.00533
Inclination
71.1025°
RAAN
107.1738°
Arg. of periapsis
21.2565°
True anomaly
67.9224°
Mean anomaly
67.3574°
Eccentric anomaly
67.63976°
Mean motion
3.68832 °/min
Orbital period
97.61 mins
BSTAR
0.0023365
Loading maneuver chart data...
Computing Atmospheric mass density...
Loading historical data...
Loading historical data...
Loading historical data...
Loading historical data...
Loading historical data...
Loading historical data...
Loading historical data...

Documentation

Showing up to 5 results
|